Benton Harbor, MI

9:26 PM EDT on July 22, 2017 (GMT -0400)
Southwest Michigan Regional

Weather History for KBEH - December, 2011

Change the Weather History Date:

Saturday, December 31, 2011

  Actual Average Record
Temperature  
Mean Temperature 38 °F -  
Max Temperature 41 °F 32 °F 61 °F (1965)
Min Temperature 35 °F 19 °F -9 °F (1963)
Degree Days  
Heating Degree Days 27    
Moisture  
Dew Point 34 °F    
Average Humidity 83    
Maximum Humidity 96    
Minimum Humidity 70    
Precipitation  
Precipitation 0.00 in - - ()
Sea Level Pressure  
Sea Level Pressure 29.89 in    
Wind  
Wind Speed 8 mph (SSW)    
Max Wind Speed 16 mph    
Max Gust Speed 23 mph    
Visibility 9 miles    
Events      
Averages and records for this station are not official NWS values.
T = Trace of Precipitation, MM = Missing Value Source: NWS Daily Summary

Daily Weather History Graph

Daily Weather History Graph

Search for Another Location

Airport or City:

Trip Planner

Search our weather history database for the weather conditions in past years. The results will help you decide how hot, cold, wet, or windy it might be!

Date:

Astronomy

Dec. 31, 2011 Rise Set
Actual Time 8:14 AM EST 5:23 PM EST
Civil Twilight 7:42 AM EST 5:55 PM EST
Nautical Twilight 7:07 AM EST 6:30 PM EST
Astronomical Twilight 6:33 AM EST 7:04 PM EST
Moon 11:50 AM EST (12/31) 12:05 AM EST (12/31)
Length of Visible Light 10h 12m
Length of Day
9h 09m
Waxing Crescent, 45% of the Moon is Illuminated
Dec 31
Waxing Crescent
Jan 1
First Quarter
Jan 9
Full
Jan 16
Last Quarter
Jan 23
New

Hourly Weather History & Observations

Time (EST) Temp. Windchill Dew Point Humidity Pressure Visibility Wind Dir Wind Speed Gust Speed Precip Events Conditions
12:53 AM 37.0 °F 34.5 °F 36.0 °F 96% 29.72 in 6.0 mi Variable 3.5 mph - N/A   Overcast
1:53 AM 37.9 °F 34.4 °F 36.0 °F 93% 29.75 in 9.0 mi NNW 4.6 mph - N/A   Overcast
2:53 AM 39.0 °F 34.8 °F 36.0 °F 89% 29.81 in 10.0 mi NNW 5.8 mph - N/A   Overcast
3:53 AM 39.9 °F 33.9 °F 37.0 °F 89% 29.84 in 5.0 mi NW 9.2 mph 16.1 mph N/A   Overcast
4:25 AM 39.2 °F 33.6 °F 35.6 °F 87% 29.83 in 10.0 mi NW 8.1 mph - N/A   Overcast
5:07 AM 39.2 °F 33.0 °F 35.6 °F 87% 29.86 in 9.0 mi NW 9.2 mph - N/A   Overcast
5:16 AM 39.2 °F 32.5 °F 35.6 °F 87% 29.86 in 8.0 mi NW 10.4 mph 20.7 mph N/A   Overcast
6:01 AM 39.2 °F 35.0 °F 35.6 °F 87% 29.88 in 8.0 mi NW 5.8 mph - N/A   Overcast
6:26 AM 39.2 °F 33.6 °F 35.6 °F 87% 29.90 in 10.0 mi WNW 8.1 mph - N/A   Overcast
6:53 AM 39.0 °F 34.0 °F 34.0 °F 82% 29.92 in 10.0 mi NW 6.9 mph - N/A   Overcast
7:53 AM 37.9 °F 35.5 °F 32.0 °F 79% 29.93 in 10.0 mi NNW 3.5 mph - N/A   Overcast
10:53 AM 41.0 °F 37.1 °F 32.0 °F 70% 30.01 in 10.0 mi SW 5.8 mph - N/A   Overcast
11:53 AM 39.9 °F 35.8 °F 32.0 °F 73% 30.01 in 10.0 mi WSW 5.8 mph - N/A   Overcast
12:53 PM 39.9 °F 33.9 °F 33.1 °F 77% 29.98 in 10.0 mi SW 9.2 mph - N/A   Overcast
1:53 PM 39.9 °F 34.5 °F 32.0 °F 73% 29.96 in 10.0 mi South 8.1 mph 17.3 mph N/A   Mostly Cloudy
2:53 PM 41.0 °F 34.7 °F 32.0 °F 70% 29.95 in 10.0 mi SSE 10.4 mph - N/A   Partly Cloudy
3:53 PM 39.9 °F 34.5 °F 32.0 °F 73% 29.95 in 10.0 mi SE 8.1 mph - N/A   Clear
4:53 PM 39.0 °F 31.8 °F 32.0 °F 76% 29.96 in 9.0 mi SSE 11.5 mph - N/A   Clear
5:53 PM 36.0 °F 29.0 °F 30.9 °F 82% 29.94 in 9.0 mi SE 9.2 mph - N/A   Clear
6:53 PM 35.1 °F 26.4 °F 30.9 °F 85% 29.93 in 8.0 mi SSE 12.7 mph - N/A   Clear
7:53 PM 35.1 °F 26.4 °F 30.9 °F 85% 29.91 in 8.0 mi SSE 12.7 mph 23.0 mph N/A   Clear
8:35 PM 35.6 °F 26.6 °F 32.0 °F 87% 29.87 in 8.0 mi SE 13.8 mph 20.7 mph N/A   Mostly Cloudy
8:53 PM 36.0 °F 28.0 °F 32.0 °F 86% 29.88 in 8.0 mi SSE 11.5 mph 20.7 mph N/A   Overcast
9:53 PM 37.9 °F 29.6 °F 34.0 °F 86% 29.86 in 8.0 mi SSE 13.8 mph - N/A   Overcast
10:30 PM 37.4 °F 29.8 °F 33.8 °F 87% 29.83 in 8.0 mi SSE 11.5 mph 23.0 mph N/A   Overcast
10:53 PM 37.9 °F 28.9 °F 35.1 °F 89% 29.83 in 8.0 mi SE 16.1 mph 21.9 mph N/A   Scattered Clouds